Weather History for KHYR - January, 2014

Change the Weather History Date:

Sunday, January 26, 2014

  Actual Average Record
Temperature  
Mean Temperature 2 °F -  
Max Temperature 7 °F 23 °F 46 °F (2002)
Min Temperature -5 °F 6 °F -34 °F (1997)
Degree Days  
Heating Degree Days 64    
Moisture  
Dew Point -5 °F    
Average Humidity 73    
Maximum Humidity 80    
Minimum Humidity 59    
Precipitation  
Precipitation 0.02 in - - ()
Sea Level Pressure  
Sea Level Pressure 29.50 in    
Wind  
Wind Speed 4 mph (WSW)    
Max Wind Speed 13 mph    
Max Gust Speed 25 mph    
Visibility 3 miles    
Events Snow    
Averages and records for this station are not official NWS values.
T = Trace of Precipitation, MM = Missing Value Source: NWS Daily Summary

Daily Weather History Graph

Daily Weather History Graph

Search for Another Location

Airport or City:

Trip Planner

Search our weather history database for the weather conditions in past years. The results will help you decide how hot, cold, wet, or windy it might be!

Date:

Astronomy

Jan. 26, 2014 Rise Set
Actual Time 7:34 AM CST 5:02 PM CST
Civil Twilight 7:02 AM CST 5:34 PM CST
Nautical Twilight 6:26 AM CST 6:11 PM CST
Astronomical Twilight 5:50 AM CST 6:46 PM CST
Moon 3:13 AM CST (1/26) 12:50 PM CST (1/26)
Length of Visible Light 10h 32m
Length of Day
9h 27m
Waning Crescent, 23% of the Moon is Illuminated
Jan 26
Waning Crescent
Jan 30
New
Feb 6
First Quarter
Feb 14
Full
Feb 22
Last Quarter

Hourly Weather History & Observations

Time (CST) Temp. Windchill Dew Point Humidity Pressure Visibility Wind Dir Wind Speed Gust Speed Precip Events Conditions
12:28 AM 1.0 °F -6.7 °F -9.0 °F 63% 29.51 in 2.5 mi SE 3.5 mph - 0.00 in Snow Light Snow
12:35 AM 1.0 °F - -8.0 °F 66% 29.51 in 3.0 mi Calm Calm - 0.00 in Snow Light Snow
12:53 AM 1.0 °F - -7.1 °F 69% 29.60 in 4.0 mi Calm Calm - 0.00 in Snow Light Snow
1:22 AM 1.0 °F - -7.1 °F 69% 29.50 in 2.0 mi Calm Calm - 0.00 in Snow Light Snow
1:25 AM 1.0 °F - -7.1 °F 69% 29.50 in 1.8 mi Calm Calm - 0.00 in Snow Light Snow
1:36 AM 1.0 °F - -6.0 °F 72% 29.50 in 2.0 mi Calm Calm - 0.00 in Snow Light Snow
1:53 AM -0.0 °F -7.9 °F -6.0 °F 76% 29.59 in 1.8 mi SE 3.5 mph - 0.00 in Snow Light Snow
2:16 AM -0.0 °F -9.9 °F -5.1 °F 79% 29.48 in 1.0 mi SE 4.6 mph - 0.01 in Snow Light Snow
2:28 AM -0.0 °F -7.9 °F -6.0 °F 76% 29.49 in 1.2 mi SE 3.5 mph - 0.01 in Snow Light Snow
2:53 AM -0.0 °F -9.9 °F -5.1 °F 79% 29.57 in 1.2 mi SSE 4.6 mph - 0.01 in Snow Light Snow
3:03 AM -0.0 °F -7.9 °F -5.1 °F 79% 29.46 in 0.8 mi ESE 3.5 mph - 0.00 in Snow Light Snow
3:11 AM -0.0 °F -7.9 °F -5.1 °F 79% 29.45 in 1.0 mi SE 3.5 mph - 0.00 in Snow Light Snow
3:18 AM -0.0 °F -7.9 °F -5.1 °F 79% 29.45 in 1.8 mi East 3.5 mph - 0.00 in Snow Light Snow
3:27 AM -0.0 °F - -5.1 °F 79% 29.46 in 2.5 mi Calm Calm - 0.00 in Snow Light Snow
3:35 AM 1.0 °F -6.7 °F -5.1 °F 75% 29.46 in 2.5 mi East 3.5 mph - 0.00 in Snow Light Snow
3:53 AM -0.0 °F -11.6 °F -6.0 °F 76% 29.53 in 3.0 mi SE 5.8 mph - 0.00 in Snow Light Snow
4:01 AM -0.0 °F -13.0 °F -6.0 °F 76% 29.43 in 1.8 mi SE 6.9 mph - 0.00 in Snow Light Snow
4:09 AM -0.0 °F -7.9 °F -6.0 °F 76% 29.43 in 1.5 mi SE 3.5 mph - 0.00 in Snow Light Snow
4:21 AM -0.0 °F -7.9 °F -6.0 °F 76% 29.42 in 2.0 mi ESE 3.5 mph - 0.00 in Snow Light Snow
4:38 AM -0.0 °F - -6.0 °F 76% 29.41 in 4.0 mi Calm Calm - 0.00 in Snow Light Snow
4:53 AM -0.0 °F -7.9 °F -6.0 °F 76% 29.49 in 4.0 mi SE 3.5 mph - 0.00 in Snow Light Snow
5:53 AM -0.0 °F -9.9 °F -6.0 °F 76% 29.46 in 8.0 mi Variable 4.6 mph - 0.01 in Snow Light Snow
6:53 AM 1.0 °F -12.9 °F -6.0 °F 72% 29.43 in 8.0 mi SSE 8.1 mph - 0.00 in Snow Light Snow
7:53 AM 1.0 °F -6.7 °F -5.1 °F 75% 29.44 in 10.0 mi SSW 3.5 mph - 0.00 in   Overcast
8:12 AM 1.0 °F -8.7 °F -5.1 °F 75% 29.34 in 2.0 mi SSW 4.6 mph - 0.00 in Snow Light Snow
8:23 AM 1.0 °F -8.7 °F -5.1 °F 75% 29.34 in 1.0 mi SSW 4.6 mph - 0.00 in Snow Light Snow
8:45 AM 1.0 °F -10.3 °F -4.0 °F 79% 29.32 in 1.8 mi South 5.8 mph - 0.00 in Snow Light Snow
8:49 AM 1.4 °F -9.9 °F -4.0 °F 78% 29.31 in 3.0 mi SSE 5.8 mph - 0.00 in Snow Light Snow
8:53 AM 1.0 °F -11.7 °F -4.0 °F 79% 29.39 in 5.0 mi SSE 6.9 mph - 0.00 in Snow Light Snow
9:53 AM 1.9 °F -9.2 °F -4.0 °F 76% 29.39 in 8.0 mi SSW 5.8 mph - 0.00 in Snow Light Snow
10:20 AM 1.9 °F -7.6 °F -2.9 °F 80% 29.30 in 2.5 mi Variable 4.6 mph - 0.00 in Snow Light Snow
10:36 AM 3.0 °F -8.0 °F -2.9 °F 76% 29.28 in 1.5 mi SSW 5.8 mph - 0.00 in Snow Light Snow
10:53 AM 3.0 °F -4.4 °F -2.0 °F 80% 29.38 in 1.2 mi Variable 3.5 mph - 0.00 in Snow Light Snow
11:09 AM 3.9 °F -5.3 °F -2.0 °F 76% 29.29 in 2.5 mi Variable 4.6 mph - 0.00 in Snow Light Snow
11:29 AM 3.9 °F -8.2 °F -2.0 °F 76% 29.28 in 3.0 mi Variable 6.9 mph - 0.00 in Snow Light Snow
11:53 AM 3.9 °F -8.2 °F -2.0 °F 76% 29.38 in 4.0 mi West 6.9 mph - 0.00 in Snow Light Snow
12:41 PM 5.0 °F -9.1 °F -2.0 °F 73% 29.29 in 2.5 mi West 9.2 mph 19.6 mph 0.00 in Snow Light Snow
12:50 PM 5.0 °F -6.9 °F -2.2 °F 72% 29.29 in 3.0 mi Variable 6.9 mph 17.3 mph 0.00 in Snow Light Snow
12:53 PM 6.1 °F -5.6 °F -2.0 °F 69% 29.38 in 3.0 mi Variable 6.9 mph 17.3 mph 0.00 in Snow Light Snow
1:31 PM 6.1 °F -4.3 °F -0.9 °F 73% 29.29 in 2.0 mi Variable 5.8 mph - 0.00 in Snow Light Snow
1:42 PM 7.0 °F -3.3 °F -0.0 °F 73% 29.29 in 1.5 mi Variable 5.8 mph - 0.00 in Snow Light Snow
1:53 PM 7.0 °F -1.7 °F -0.0 °F 73% 29.39 in 1.2 mi Variable 4.6 mph - 0.00 in Snow Light Snow
2:24 PM 7.0 °F -6.6 °F 1.0 °F 77% 29.33 in 1.0 mi WNW 9.2 mph - 0.00 in Snow Light Snow
2:35 PM 7.0 °F -3.3 °F -0.0 °F 73% 29.34 in 1.2 mi Variable 5.8 mph 18.4 mph 0.00 in Snow Light Snow
2:43 PM 7.0 °F -3.3 °F -2.0 °F 67% 29.34 in 2.0 mi Variable 5.8 mph 19.6 mph 0.00 in Snow Light Snow
2:47 PM 6.8 °F -6.9 °F -0.4 °F 72% 29.34 in 1.2 mi NW 9.2 mph 19.6 mph 0.00 in Snow Light Snow
2:51 PM 6.8 °F -2.0 °F -0.4 °F 72% 29.35 in 0.8 mi Variable 4.6 mph 17.3 mph 0.00 in Snow Light Snow
2:53 PM 7.0 °F -1.7 °F -0.0 °F 73% 29.44 in 0.8 mi Variable 4.6 mph 17.3 mph 0.00 in Snow Light Snow
2:59 PM 7.0 °F - -0.0 °F 73% 29.35 in 1.2 mi North - - 0.00 in Snow Light Snow
3:31 PM 6.1 °F -7.8 °F -2.9 °F 67% 29.38 in 2.0 mi NW 9.2 mph 23.0 mph 0.00 in Snow Light Snow
3:49 PM 6.8 °F -5.9 °F -2.2 °F 67% 29.41 in 1.5 mi NW 8.1 mph - 0.00 in Snow Light Snow
3:53 PM 6.1 °F -6.8 °F -0.9 °F 73% 29.50 in 0.8 mi NW 8.1 mph - 0.00 in Snow Light Snow
4:26 PM 5.0 °F -6.9 °F -2.0 °F 73% 29.44 in 1.2 mi Variable 6.9 mph 18.4 mph 0.00 in Snow Light Snow
4:35 PM 5.0 °F -8.1 °F -2.9 °F 70% 29.45 in 2.5 mi NW 8.1 mph - 0.00 in Snow Light Snow
4:53 PM 3.9 °F -6.9 °F -4.0 °F 70% 29.57 in 2.0 mi Variable 5.8 mph 19.6 mph 0.00 in Snow Light Snow
5:04 PM 3.9 °F - -2.9 °F 73% 29.49 in 1.5 mi North - - 0.00 in Snow Light Snow
5:14 PM 3.9 °F -9.4 °F -4.0 °F 70% 29.50 in 3.0 mi NW 8.1 mph - 0.00 in Snow Light Snow
5:17 PM 3.0 °F -11.5 °F -4.0 °F 73% 29.50 in 2.0 mi NNW 9.2 mph - 0.00 in Snow Light Snow
5:23 PM 3.0 °F -9.3 °F -4.0 °F 73% 29.51 in 1.8 mi Variable 6.9 mph - 0.00 in Snow Light Snow
5:28 PM 3.0 °F -10.5 °F -4.0 °F 73% 29.52 in 3.0 mi NW 8.1 mph - 0.00 in Snow Light Snow
5:53 PM 1.9 °F -11.8 °F -6.0 °F 69% 29.64 in 5.0 mi NW 8.1 mph 20.7 mph 0.00 in   Haze
6:13 PM 1.9 °F -10.6 °F -5.1 °F 72% 29.57 in 2.5 mi Variable 6.9 mph 20.7 mph 0.00 in Snow Light Snow
6:30 PM 1.9 °F -11.8 °F -6.0 °F 69% 29.59 in 3.0 mi NW 8.1 mph 20.7 mph 0.00 in   Overcast
6:53 PM 1.0 °F -12.9 °F -6.0 °F 72% 29.71 in 3.0 mi NW 8.1 mph 20.7 mph 0.00 in   Overcast
7:03 PM 1.0 °F -10.3 °F -6.0 °F 72% 29.62 in 2.0 mi Variable 5.8 mph - 0.00 in Snow Light Snow
7:10 PM 1.0 °F -12.9 °F -6.0 °F 72% 29.63 in 1.2 mi NW 8.1 mph - 0.00 in Snow Light Snow
7:18 PM 1.0 °F -8.7 °F -5.1 °F 75% 29.64 in 1.0 mi Variable 4.6 mph 18.4 mph 0.00 in Snow Light Snow
7:31 PM -0.0 °F -14.2 °F -6.0 °F 76% 29.66 in 1.5 mi NW 8.1 mph 19.6 mph 0.00 in Snow Light Snow
7:53 PM -0.0 °F -18.0 °F -7.1 °F 72% 29.78 in 2.0 mi WNW 12.7 mph 25.3 mph 0.00 in Snow Light Snow
8:00 PM -0.0 °F -14.2 °F -7.1 °F 72% 29.69 in 1.8 mi NW 8.1 mph 25.3 mph 0.00 in Snow Light Snow
8:53 PM -0.9 °F -15.3 °F -9.0 °F 69% 29.84 in 2.0 mi NNW 8.1 mph 20.7 mph 0.00 in Snow Light Snow
9:04 PM -2.0 °F -16.6 °F -9.0 °F 72% 29.75 in 1.8 mi NW 8.1 mph 20.7 mph 0.00 in Snow Light Snow
9:18 PM -2.0 °F -16.6 °F -9.0 °F 72% 29.76 in 2.0 mi NW 8.1 mph 18.4 mph 0.00 in Snow Light Snow
9:30 PM -2.0 °F -13.9 °F -9.9 °F 69% 29.77 in 4.0 mi Variable 5.8 mph - 0.00 in Snow Light Snow
9:48 PM -2.2 °F -15.6 °F -9.4 °F 71% 29.78 in 2.5 mi Variable 6.9 mph - 0.00 in Snow Light Snow
9:53 PM -2.0 °F -15.4 °F -9.9 °F 69% 29.89 in 1.5 mi Variable 6.9 mph - 0.00 in Snow Light Snow
10:15 PM -2.9 °F -18.8 °F -9.9 °F 72% 29.80 in 3.0 mi WNW 9.2 mph - 0.00 in Snow Light Snow
10:31 PM -2.9 °F -17.7 °F -13.0 °F 62% 29.82 in 7.0 mi NW 8.1 mph 18.4 mph 0.00 in   Overcast
10:53 PM -4.0 °F -14.6 °F -15.0 °F 59% 29.93 in 10.0 mi Variable 4.6 mph - 0.00 in   Overcast
11:53 PM -5.1 °F -20.4 °F -14.1 °F 65% 29.97 in 5.0 mi WNW 8.1 mph - N/A   Haze